Weather History for Lexington, NC

Change the Weather History Date:

Thursday, January 17, 2013

  Actual Average (KINT) Record (KINT)
Temperature  
Mean Temperature 40 °F -  
Max Temperature 49 °F 45 °F 70 °F (1974)
Min Temperature 32 °F 29 °F -8 °F (1977)
Degree Days  
Heating Degree Days 25    
Moisture  
Dew Point 44 °F    
Average Humidity 100    
Maximum Humidity 100    
Minimum Humidity 100    
Precipitation  
Precipitation 0.83 in - - ()
Sea Level Pressure  
Sea Level Pressure 29.97 in    
Wind  
Wind Speed 3 mph (NNE)    
Max Wind Speed 13 mph    
Max Gust Speed 24 mph    
Visibility 4 miles    
Events Rain , Snow    
Averages and records for this station are not official NWS values.
T = Trace of Precipitation, MM = Missing Value Source: NWS Daily Summary

Daily Weather History Graph

Daily Weather History Graph

Search for Another Location

Airport:

Trip Planner

Search our weather history database for the weather conditions in past years. The results will help you decide how hot, cold, wet, or windy it might be!

Date:

Astronomy

Jan. 17, 2013 Rise Set
Actual Time 7:29 AM EST 5:33 PM EST
Civil Twilight 7:02 AM EST 6:01 PM EST
Nautical Twilight 6:30 AM EST 6:32 PM EST
Astronomical Twilight 6:00 AM EST 7:02 PM EST
Moon 10:50 AM EST (1/17) No Moon Set
Length of Visible Light 10h 58m
Length of Day
10h 03m
Waxing Crescent, 37% of the Moon is Illuminated
Jan 17
Waxing Crescent
Jan 18
First Quarter
Jan 26
Full
Feb 3
Last Quarter
Feb 10
New

Hourly Weather History & Observations

Time (EST) Temp. Windchill Dew Point Humidity Pressure Visibility Wind Dir Wind Speed Gust Speed Precip Events Conditions
12:15 AM 48.6 °F - 48.6 °F 100% 29.99 in 3.0 mi Calm Calm - N/A   Light Drizzle
12:35 AM 48.4 °F - 48.4 °F 100% 29.99 in 3.0 mi Calm Calm - N/A Rain Rain
12:55 AM 48.4 °F - 48.4 °F 100% 29.98 in 2.5 mi Calm Calm - 0.01 in Rain Light Rain
1:15 AM 48.4 °F - 48.4 °F 100% 29.98 in 3.0 mi Calm Calm - N/A   Drizzle
1:35 AM 48.6 °F - 48.6 °F 100% 29.97 in 2.5 mi Calm Calm - 0.01 in Rain Heavy Rain
1:55 AM 48.6 °F - 48.6 °F 100% 29.96 in 2.0 mi Calm Calm - 0.01 in Rain Rain
2:15 AM 48.6 °F - 48.6 °F 100% 29.96 in 2.5 mi Calm Calm - N/A   Drizzle
2:35 AM 48.7 °F - 48.7 °F 100% 29.96 in 4.0 mi Calm Calm - N/A   Light Drizzle
2:55 AM 48.6 °F - 48.6 °F 100% 29.96 in 2.0 mi Calm Calm - N/A   Heavy Drizzle
3:15 AM 48.6 °F - 48.6 °F 100% 29.96 in 2.5 mi Calm Calm - 0.02 in Rain Heavy Rain
3:35 AM 48.7 °F - 48.7 °F 100% 29.96 in 3.0 mi Calm Calm - 0.02 in   Heavy Drizzle
3:55 AM 48.7 °F - 48.7 °F 100% 29.96 in 2.5 mi Calm Calm - 0.02 in Rain Heavy Rain
4:35 AM 48.4 °F - 48.4 °F 100% 29.96 in 4.0 mi Calm Calm - 0.02 in   Drizzle
4:55 AM 48.4 °F - 48.4 °F 100% 29.96 in 2.5 mi Calm Calm - 0.03 in   Heavy Drizzle
5:15 AM 48.4 °F - 48.4 °F 100% 29.96 in 3.0 mi Calm Calm - 0.02 in Rain Rain
5:35 AM 48.6 °F - 48.6 °F 100% 29.96 in 5.0 mi Calm Calm - 0.02 in Rain Rain
5:55 AM 48.6 °F - 48.6 °F 100% 29.96 in 5.0 mi NE 5.8 mph - 0.03 in Rain Heavy Rain
6:15 AM 48.6 °F - 48.6 °F 100% 29.96 in 5.0 mi ENE 4.6 mph - 0.01 in Rain Light Rain
6:35 AM 48.7 °F - 48.7 °F 100% 29.96 in 7.0 mi NNE 3.5 mph - 0.01 in   Drizzle
6:55 AM 48.7 °F - 48.7 °F 100% 29.97 in 5.0 mi Calm Calm - 0.02 in Rain Rain
7:15 AM 48.6 °F - 48.6 °F 100% 29.98 in 5.0 mi NNE 4.6 mph - 0.01 in Rain Rain
7:35 AM 48.4 °F - 48.4 °F 100% 29.99 in 7.0 mi Calm Calm - 0.02 in   Drizzle
7:55 AM 48.2 °F - 48.2 °F 100% 29.99 in 5.0 mi NE 6.9 mph - 0.02 in Rain Heavy Rain
8:15 AM 47.8 °F - 47.8 °F 100% 30.00 in 5.0 mi NE 4.6 mph - 0.01 in Rain Rain
8:35 AM 47.5 °F - 47.5 °F 100% 30.01 in 4.0 mi NE 4.6 mph - 0.02 in Rain Rain
8:55 AM 47.3 °F - 47.3 °F 100% 30.02 in 2.5 mi NE 6.9 mph - 0.04 in Rain Rain
9:15 AM 46.9 °F - 46.9 °F 100% 30.02 in 3.0 mi NNE 4.6 mph - 0.02 in Rain Rain
9:35 AM 46.9 °F - 46.9 °F 100% 30.02 in 4.0 mi NE 4.6 mph - 0.05 in Rain Light Rain
9:55 AM 47.3 °F - 47.3 °F 100% 30.01 in 5.0 mi ENE 9.2 mph - 0.06 in Rain Light Rain
10:15 AM 47.3 °F - 47.3 °F 100% 30.00 in 5.0 mi ENE 12.7 mph 18.4 mph N/A   Drizzle
10:35 AM 46.4 °F 42.9 °F 46.4 °F 100% 30.00 in 4.0 mi NE 6.9 mph 16.1 mph N/A   Drizzle
10:55 AM 45.5 °F 41.8 °F 45.5 °F 100% 29.99 in 4.0 mi NNE 6.9 mph 17.3 mph 0.01 in   Drizzle
11:15 AM 45.0 °F 41.8 °F 45.0 °F 100% 29.99 in 4.0 mi North 5.8 mph 16.1 mph 0.02 in Rain Heavy Rain
11:35 AM 44.6 °F 41.4 °F 44.6 °F 100% 30.00 in 2.5 mi North 5.8 mph - 0.06 in Rain Rain
11:55 AM 44.1 °F 40.8 °F 44.1 °F 100% 29.99 in 4.0 mi North 5.8 mph - 0.09 in Rain Rain
12:15 PM 43.5 °F 37.9 °F 43.5 °F 100% 29.97 in 5.0 mi NNE 10.4 mph 16.1 mph 0.01 in Rain Heavy Rain
12:35 PM 42.1 °F 36.1 °F 42.1 °F 100% 29.94 in 4.0 mi NNE 10.4 mph 19.6 mph 0.02 in   Heavy Drizzle
12:55 PM 41.0 °F 35.8 °F 41.0 °F 100% 29.93 in 7.0 mi NNE 8.1 mph 20.7 mph 0.03 in Rain Rain
1:15 PM 40.8 °F 35.6 °F 40.8 °F 100% 29.91 in 5.0 mi NNE 8.1 mph - N/A   Heavy Drizzle
1:35 PM 41.0 °F 34.3 °F 41.0 °F 100% 29.87 in 5.0 mi NNE 11.5 mph 21.9 mph N/A   Light Drizzle
1:55 PM 41.0 °F 35.8 °F 41.0 °F 100% 29.88 in 4.0 mi NNE 8.1 mph 19.6 mph 0.01 in   Drizzle
2:15 PM 41.2 °F 36.0 °F 41.2 °F 100% 29.89 in 7.0 mi NNE 8.1 mph - N/A Rain Light Rain
2:35 PM 41.0 °F 34.7 °F 41.0 °F 100% 29.89 in 5.0 mi North 10.4 mph 21.9 mph N/A   Light Drizzle
2:55 PM 40.6 °F 37.5 °F 40.6 °F 100% 29.89 in 4.0 mi NNE 4.6 mph - N/A   Drizzle
3:15 PM 40.3 °F 36.3 °F 40.3 °F 100% 29.88 in 4.0 mi North 5.8 mph - N/A   Heavy Drizzle
3:35 PM 40.3 °F 34.9 °F 40.3 °F 100% 29.89 in 5.0 mi NNE 8.1 mph - 0.01 in   Drizzle
3:55 PM 40.3 °F 33.9 °F 40.3 °F 100% 29.89 in 2.0 mi NNE 10.4 mph 17.3 mph 0.04 in Rain Rain
4:15 PM 40.5 °F 35.1 °F 40.5 °F 100% 29.88 in 4.0 mi NNE 8.1 mph 24.2 mph 0.02 in Rain Rain
4:35 PM 40.1 °F 32.7 °F 40.1 °F 100% 29.87 in 5.0 mi NNE 12.7 mph 20.7 mph 0.05 in Rain Rain
4:55 PM 40.1 °F 33.2 °F 40.1 °F 100% 29.88 in 3.0 mi NNE 11.5 mph 19.6 mph 0.09 in Rain Rain
5:55 PM 39.2 °F 32.0 °F 39.2 °F 100% 29.89 in 5.0 mi NNE 11.5 mph 24.2 mph 0.05 in Rain Rain
6:35 PM 38.5 °F 31.6 °F 38.5 °F 100% 29.99 in 2.5 mi WNW 10.4 mph 17.3 mph 0.10 in Rain Heavy Rain
8:55 PM 32.4 °F 26.9 °F 32.4 °F 100% 30.04 in 2.0 mi North 5.8 mph - 0.09 in Snow Light Snow
9:15 PM 32.5 °F 24.8 °F 32.5 °F 100% 30.03 in 5.0 mi NNE 9.2 mph 16.1 mph 0.01 in Snow Light Snow
9:55 PM 32.9 °F - 32.9 °F 100% 30.10 in 4.0 mi Calm Calm - 0.06 in Rain Rain
10:15 PM 32.5 °F 29.3 °F 32.5 °F 100% 30.13 in 2.5 mi West 3.5 mph - 0.01 in   Overcast
10:35 PM 32.2 °F - 32.2 °F 100% 30.15 in 4.0 mi Calm Calm - 0.01 in Rain Light Rain
10:55 PM 32.2 °F - 32.2 °F 100% 30.16 in 4.0 mi Calm Calm - 0.02 in Rain Light Rain